Location: Olda
(45.8833°N, 9.5500°E)
Time: 15:14:47
(UTC+00:00)

SL-16 R/B - Pass Details

Date: 03 March 2021
Orbit: 842 x 846 km, 71.0° (Epoch: 11 April)

Event Time Altitude Azimuth Distance (km) Brightness Sun altitude
Rises 17:46:24 0° 199° (SSW) 3,387 5.6 -6.9°
Reaches altitude 10° 17:48:50 10° 198° (SSW) 2,457 4.9 -7.3°
Maximum altitude 17:54:27 77° 114° (ESE) 870 2.2 -8.3°
Drops below altitude 10° 18:00:08 10° 29° (NNE) 2,475 4.4 -9.3°
Sets 18:02:36 0° 28° (NNE) 3,415 5.1 -9.7°
